Location: Observatory
(52.1446°N, 0.4624°W)
Time: 05:21:41
(UTC+01:00)

ISS - Pass Details

Date: 23 July 2021
Orbit: 419 x 421 km, 51.6° (Epoch: 03 August)

Event Time Altitude Azimuth Distance (km) Brightness Sun altitude
Rises 00:26:01 0° 282° (WNW) 2,374 0.4 -17.2°
Reaches altitude 10° 00:28:18 10° 271° (W) 1,506 -0.8 -17.3°
Enters shadow 00:30:25 25° 237° (WSW) 894 -2.3 -17.3°
